Submittal Forms
Current Contests
Recent Contests

Club Activity Tracker - Contest Club Finland (from club selection on form)

Recent postings for the selected club or group are listed below. Other than the call used, all calls listed are only those associated with the club or group. Click on a call to see the details of the posting.
Status Key: new=new posting, update=update prior posting, move=change club/group, delete=delete prior posting.

Sort by   for past

TimestampCallContestClassPowerScoreStatus
2021-05-14 21:18:07OH5ZA(OH1ZAA)KRC SSTSingle OpHP143new6426
2021-05-13 04:16:01OH5ZA(OH1ZAA)CWopsTSingle OpHP192new6421
2021-05-12 20:20:04OH5ZA(OH1ZAA)CWopsTSingle OpHP1,886new6420
2021-05-12 14:19:02OH5ZA(OH1ZAA)CWopsTSingle OpHP3,024new6419
2021-05-10 14:12:48OH5ZA(OH1ZAA)KRC SSTSingle OpHP36update6415
2021-05-09 19:17:38OH1F(OH1TM)CQ-MSOABCWHP1,273,964new6412
2021-05-09 12:27:05OG0R(OH2PM)Volta RTTYSOABHP1,395,719,424new6411
2021-05-09 12:07:57OH1NOACQ-MSOABCWLP121,180new6412
2021-05-07 21:20:53OH5ZA(OH1ZAA)KRC SSTSingle OpHP143new6410
2021-05-06 04:07:45OH5ZA(OH1ZAA)CWopsTSingle OpHP168new6404
 
2021-05-05 20:16:39OH5ZA(OH1ZAA)CWopsTSingle OpHP1,680new6403
2021-05-05 16:06:36OH5ZA(OH1ZAA)CWopsTSingle OpHP3,025update6402
2021-05-01 18:47:23OH1NOAARISO CWLP15,120new6393
2021-05-01 02:01:22OH2MZA(OH1ZAA)KRC SSTSingle OpHP24update6391
2021-04-29 04:10:17OH5ZA(OH1ZAA)CWopsTSingle OpHP132new6386
2021-04-28 20:14:33OH5ZA(OH1ZAA)CWopsTSingle OpHP2,950new6385
2021-04-28 14:16:12OH5ZA(OH1ZAA)CWopsTSingle OpHP4,489new6384
2021-04-22 04:11:24OH5ZA(OH1ZAA)CWopsTSingle OpHP224new6366
2021-04-21 20:13:32OH5ZA(OH1ZAA)CWopsTSingle OpHP3,328new6365
2021-04-21 14:20:19OH5ZA(OH1ZAA)CWopsTSingle OpHP2,064new6364
2021-04-15 04:20:27OH5ZA(OH1ZAA)CWopsTSingle OpHP121new